Theta_e
311 311 311 312 312 312 313 313 313 313 313 313 313 313 313 312 312 312 313 312 313 315 315 316 317 316 316 318 318 317 312 312 314 314 316 315 314 316 316 316 316 317 317 317 317
311 311 312 312 312 313 313 313 313 314 314 314 314 314 314 314 314 314 314 313 312 314 315 315 317 317 316 317 318 314 308 310 310 312 314 315 314 316 315 315 314 316 317 317 317
312 312 312 313 313 313 313 313 314 314 314 314 314 314 314 314 314 313 315 314 313 313 314 314 316 317 316 317 317 313 313 310 313 315 317 315 314 317 314 311 315 317 317 317 316
313 313 313 313 313 313 313 313 313 314 314 314 314 314 314 314 311 314 314 314 313 313 314 313 315 316 314 314 316 316 315 315 316 317 317 314 315 314 315 317 318 317 317 317 317
312 312 311 311 311 310 310 310 310 311 311 312 312 313 313 313 314 315 314 314 313 313 314 314 315 315 314 313 314 314 314 317 317 317 317 317 314 313 315 317 318 317 316 316 316
307 307 308 308 309 309 310 311 311 311 310 309 309 308 309 310 314 315 314 314 313 314 314 314 314 314 315 314 313 313 313 313 314 315 315 314 315 314 316 316 315 315 315 315 315
310 310 311 312 312 313 314 314 315 315 315 314 312 308 307 310 311 312 314 313 313 314 314 314 313 314 314 313 314 313 311 308 310 312 311 313 312 309 315 314 315 315 315 315 316
313 313 314 315 315 316 317 317 316 316 314 312 313 311 309 313 311 310 310 311 312 313 312 312 312 313 314 313 311 309 309 310 309 309 312 313 311 311 314 314 314 315 317 316 316
314 317 319 320 320 320 321 321 320 319 318 312 310 310 311 314 313 311 309 312 312 312 311 311 311 312 312 308 307 306 307 307 307 309 310 310 310 309 312 313 314 315 315 315 315
319 321 321 321 322 322 322 321 320 316 313 310 309 309 312 314 313 312 313 312 312 312 311 311 311 308 306 307 308 308 307 306 306 308 308 309 308 308 313 311 312 313 313 314 314
322 322 323 322 322 322 322 322 316 314 311 312 312 312 313 312 312 313 313 313 312 311 308 310 307 308 309 307 308 307 305 305 306 307 309 308 309 308 310 311 311 311 312 311 313
322 323 323 322 322 323 322 319 312 312 310 318 318 315 314 312 313 313 312 312 311 309 307 308 308 308 307 307 308 308 308 308 308 308 306 307 309 309 309 309 311 311 312 312 312
323 323 323 323 323 322 321 319 312 308 309 314 313 311 312 311 309 310 312 311 309 308 307 309 309 309 308 308 308 307 308 309 308 307 306 306 308 308 308 309 310 311 313 312 312
323 324 324 322 322 321 321 320 311 310 310 309 308 309 309 309 309 309 311 311 309 309 307 307 308 309 308 309 308 309 307 307 308 309 310 308 311 310 310 307 308 310 311 313 314
324 323 323 324 324 322 321 320 319 313 323 312 308 310 311 308 309 309 310 310 308 308 307 308 308 309 309 309 307 309 309 308 308 308 307 308 308 311 307 309 308 308 312 315 314
322 320 320 322 321 321 318 318 317 315 324 314 308 309 309 309 309 309 309 310 309 308 307 307 308 307 307 307 306 307 309 307 304 306 310 308 309 313 308 308 309 308 312 314 314
320 319 321 322 322 320 319 316 318 320 315 312 308 308 308 307 309 307 308 308 309 311 309 307 307 307 308 309 307 308 308 310 309 309 313 307 308 312 311 309 307 308 312 313 313
319 320 321 320 321 320 318 317 320 319 317 313 311 310 313 309 311 307 306 307 306 307 305 310 315 308 306 308 309 307 308 311 313 314 314 306 308 313 307 308 309 311 311 311 311
318 318 317 319 319 319 318 319 318 319 318 318 318 318 317 312 311 310 306 308 308 305 311 308 310 307 305 307 307 307 309 309 311 308 309 311 308 310 312 310 306 307 309 310 309
312 310 312 314 318 318 317 318 314 315 316 314 318 316 315 314 311 309 310 307 308 305 306 310 312 307 306 306 306 307 306 310 308 312 313 311 312 313 312 312 308 307 308 310 312
307 306 309 311 311 316 317 315 314 315 315 316 316 316 315 314 311 314 313 310 307 309 305 307 308 313 307 306 308 306 307 307 307 310 314 315 314 312 312 312 310 306 309 310 311
304 305 307 309 312 312 313 312 312 313 315 314 315 316 316 314 315 316 316 313 311 308 311 307 311 312 312 309 306 307 309 309 313 314 312 313 313 311 309 310 310 311 308 308 307
303 305 306 311 310 310 309 310 311 311 311 313 314 313 314 315 315 313 312 311 310 311 313 311 312 315 313 310 307 309 309 308 310 311 313 313 313 311 310 309 309 302 302 303 302
302 302 305 308 308 309 310 310 310 310 310 311 312 312 312 312 312 313 312 309 305 307 308 309 310 313 314 312 308 310 308 307 307 308 310 312 312 309 308 309 305 300 298 297 297
299 301 301 304 304 306 308 308 308 308 309 309 309 310 311 311 310 310 305 302 302 302 302 302 304 306 304 303 304 304 303 302 303 304 306 306 306 306 299 295 295 298 296 296 295
297 298 298 298 299 301 304 305 305 305 306 307 307 307 303 307 304 303 298 299 298 298 296 297 297 298 298 298 299 299 299 299 299 300 301 302 305 294 294 293 293 296 296 294 292
293 294 295 296 296 297 298 301 300 299 299 299 297 299 298 299 295 295 295 295 295 295 294 295 294 288 296 297 295 293 294 295 296 296 296 300 294 293 292 292 292 294 293 292 291
Wind_Speed
7 7 8 8 9 9 9 10 10 10 11 11 11 12 12 13 14 15 17 11 9 8 9 7 6 5 4 3 3 3 3 2 5 4 5 2 1 2 4 7 7 9 18 16 13
7 8 8 9 10 10 10 11 11 11 12 13 14 14 14 15 18 21 10 11 9 8 9 8 7 6 3 3 4 3 4 8 6 4 5 5 5 9 4 9 9 16 22 24 24
9 9 10 11 11 12 12 13 13 13 13 14 15 16 16 16 19 2 2 6 1 8 10 10 8 7 4 4 6 5 6 4 6 13 13 8 7 10 3 8 20 18 21 20 22
11 11 12 12 13 14 14 15 15 15 15 16 16 17 18 15 6 2 8 15 9 9 12 11 9 6 5 5 7 3 14 11 6 7 6 6 9 6 12 38 35 26 27 30 30
13 14 14 14 15 15 16 16 17 17 17 18 17 17 18 10 18 22 18 14 10 10 13 13 12 7 5 5 3 5 6 14 18 16 19 21 22 12 22 46 41 34 33 33 32
13 13 13 14 15 16 16 17 17 17 17 17 17 17 17 10 14 12 12 12 11 11 14 15 7 11 6 5 6 3 7 14 16 21 18 12 23 5 27 38 38 34 34 33 32
11 12 13 13 15 16 17 18 18 18 18 18 18 16 19 29 22 20 19 16 13 13 14 13 16 8 2 3 5 6 7 8 9 11 7 9 10 10 36 28 32 32 31 26 26
10 10 11 12 14 15 16 18 18 18 18 18 18 17 15 20 20 21 22 24 18 13 12 11 10 11 7 3 4 4 1 5 2 7 4 10 16 16 23 21 25 26 25 32 33
9 8 9 11 14 16 16 18 18 18 16 14 14 12 11 16 13 15 17 15 12 11 9 5 6 5 2 4 5 4 5 6 11 15 4 7 8 10 11 10 22 34 42 42 43
7 7 9 12 14 16 16 17 17 15 12 7 11 5 16 10 8 9 8 11 7 7 6 6 5 2 3 4 6 8 5 6 7 5 3 5 13 11 40 18 31 40 49 51 49
8 8 10 14 16 18 17 15 6 5 5 8 8 11 13 9 9 8 7 11 8 5 5 3 4 8 15 11 3 3 5 7 10 11 4 12 18 17 24 30 32 39 41 39 51
10 11 12 15 16 17 16 8 7 8 12 18 25 30 33 20 7 8 8 9 6 6 6 3 6 14 3 4 8 8 8 15 11 16 4 14 21 19 18 22 38 37 37 43 37
12 13 13 13 18 14 13 12 11 13 6 14 16 14 14 15 10 17 13 7 5 6 8 8 6 5 5 4 9 5 7 14 11 8 6 9 12 7 8 23 34 37 45 41 34
15 16 15 14 13 10 10 11 11 14 3 7 3 1 2 4 3 7 17 7 2 7 6 6 3 6 4 8 6 7 12 14 10 4 4 5 11 2 7 10 5 29 34 38 39
16 14 14 12 8 9 7 8 10 6 6 2 1 1 2 3 2 1 10 5 3 4 4 7 5 4 4 8 7 11 2 3 2 3 5 1 3 1 5 6 14 10 26 29 25
11 11 12 11 9 8 1 10 7 3 8 3 1 2 1 0 0 3 2 2 2 3 2 8 1 6 9 5 8 2 2 4 4 2 5 9 7 20 4 5 4 6 16 21 19
15 14 15 11 8 11 2 10 2 5 4 4 3 3 2 2 2 4 3 3 4 2 4 3 5 4 4 3 2 4 5 4 4 1 8 2 4 16 10 15 9 9 21 22 19
15 15 14 13 14 8 6 3 9 2 3 3 1 1 2 1 4 1 2 4 6 3 1 4 14 7 6 8 8 7 9 5 6 13 18 6 8 16 10 12 19 19 17 11 7
13 12 12 17 15 13 8 6 5 6 5 5 4 8 21 6 6 0 6 6 7 10 7 4 13 3 5 3 7 5 6 6 4 1 3 10 15 16 24 17 7 15 9 10 13
13 12 18 14 14 18 7 16 7 11 4 1 6 7 7 4 4 5 8 4 5 9 3 4 14 7 2 2 3 5 1 2 0 4 12 9 19 16 25 20 8 9 16 21 33
12 5 7 9 16 12 9 6 4 18 13 6 9 17 10 3 7 11 6 4 5 2 8 4 6 15 3 8 11 2 3 4 2 6 17 20 16 21 25 24 15 5 6 18 20
9 1 7 15 9 7 11 7 4 11 10 9 7 9 10 6 13 13 9 3 9 1 3 3 3 9 17 6 6 6 13 13 12 14 15 18 21 17 14 19 21 30 21 24 23
5 5 8 16 6 10 10 8 7 5 12 5 8 8 10 9 8 11 10 1 8 4 2 3 5 5 4 4 4 3 3 8 15 18 27 22 21 15 13 14 25 25 31 32 29
5 1 7 18 20 7 11 17 19 16 14 16 11 10 13 15 13 11 9 2 7 2 2 6 6 11 14 14 5 7 9 13 10 9 14 15 16 16 19 25 20 28 20 23 24
7 3 3 3 6 9 11 12 14 8 7 8 3 10 12 9 10 13 4 4 3 5 3 2 4 4 11 15 10 15 19 21 24 23 22 27 27 17 12 13 17 19 19 22 28
5 2 1 5 7 3 4 12 19 20 13 18 15 6 0 4 3 0 2 0 4 3 2 1 4 5 15 20 15 18 20 25 26 27 27 24 18 6 11 20 22 16 16 21 27
6 7 1 3 1 1 2 4 2 4 10 9 7 3 1 2 2 4 8 12 10 7 6 4 3 2 15 22 12 12 17 17 15 7 4 5 5 8 11 13 20 17 11 18 25
Wind_Direction
332 335 338 339 339 340 341 341 342 341 339 337 338 337 335 330 321 310 301 286 268 249 239 238 229 227 200 200 195 151 64 260 254 202 259 266 287 271 267 261 246 233 246 261 269
308 313 316 318 319 321 322 322 323 324 324 324 325 325 326 326 319 310 301 276 249 239 230 236 225 210 187 200 198 138 140 223 214 213 250 294 259 284 258 257 252 261 267 269 267
295 299 303 306 307 308 309 309 310 311 311 312 315 317 320 326 323 351 55 23 88 239 231 224 218 201 209 202 199 180 209 217 264 258 280 284 282 271 226 265 256 265 298 289 280
286 290 293 295 297 298 299 300 299 299 299 300 303 306 310 316 307 282 305 305 294 236 225 215 200 185 193 207 203 211 242 227 248 261 275 265 282 254 235 269 286 282 285 280 276
284 286 287 289 290 293 295 295 294 294 292 291 291 292 297 287 272 289 288 285 276 251 229 225 209 200 200 205 188 215 244 253 264 275 279 280 262 252 265 283 287 286 282 276 271
285 288 290 293 294 295 297 296 294 293 291 291 287 285 287 261 277 280 277 274 266 250 235 224 227 235 266 234 188 280 274 280 284 272 263 242 273 238 269 283 287 286 284 284 277
283 289 293 295 297 301 303 302 301 297 292 286 284 280 274 265 274 271 269 269 262 256 247 239 228 216 223 273 273 303 317 309 231 258 233 233 288 229 279 289 290 292 295 295 288
281 289 296 300 303 306 309 305 305 302 296 286 278 276 264 274 268 263 264 264 259 252 242 244 230 238 246 278 324 351 245 326 271 157 226 164 268 276 288 289 289 296 303 307 301
284 291 302 307 311 314 320 314 312 306 296 281 266 251 263 266 276 269 256 252 248 232 220 203 190 214 236 93 1 351 250 233 309 208 154 186 252 269 305 286 287 288 291 291 287
284 297 312 319 323 322 327 324 317 305 296 280 248 254 246 260 272 266 240 219 214 195 162 177 177 106 43 107 228 229 228 250 249 292 178 246 259 280 284 284 278 284 285 284 281
279 289 308 317 326 331 331 340 333 306 301 254 272 251 278 277 256 262 223 194 176 171 156 151 127 204 225 204 199 236 232 245 260 267 277 253 265 265 267 282 272 272 271 274 281
289 298 309 315 325 337 339 10 349 306 298 275 266 256 256 257 266 243 204 178 173 189 118 58 211 229 129 168 237 258 287 272 282 272 204 276 277 270 254 245 257 266 274 270 275
284 293 304 315 322 334 349 0 346 332 269 283 255 258 259 255 233 244 201 190 167 160 197 194 220 204 186 223 243 200 232 265 255 310 245 297 280 255 275 245 251 265 266 277 279
284 292 290 295 309 327 338 351 349 339 312 276 279 282 208 209 233 214 195 201 178 219 171 233 270 214 143 231 199 262 237 251 269 348 252 29 294 177 228 249 234 257 274 279 289
272 277 280 276 273 294 312 340 341 357 302 257 241 295 148 184 135 36 181 190 174 182 132 256 176 172 178 223 150 230 163 244 180 204 316 184 252 94 89 234 251 263 276 290 297
248 278 270 268 292 242 60 8 327 72 249 321 35 1 41 342 255 112 160 160 132 169 254 247 271 182 213 219 190 67 68 49 54 82 278 181 178 287 178 206 263 254 297 304 309
269 267 245 243 222 183 155 12 344 216 358 354 6 24 353 292 282 176 152 176 189 246 239 217 218 254 194 209 139 143 69 321 324 50 246 131 222 261 283 280 254 269 285 291 310
262 236 225 231 220 218 169 73 233 170 286 318 350 108 287 3 251 102 101 249 226 202 130 249 290 195 183 202 189 180 165 169 241 279 282 144 250 266 237 269 277 265 262 287 8
252 248 244 222 226 217 187 208 218 191 218 200 217 262 283 212 210 213 216 240 233 177 198 210 262 219 223 163 150 179 177 191 225 105 286 263 269 292 279 272 244 243 231 297 334
265 271 260 258 241 231 221 238 210 208 204 320 241 218 237 221 206 201 201 193 231 195 147 274 285 182 202 95 231 189 192 182 36 225 244 232 262 261 279 289 292 286 313 339 334
271 275 259 228 217 218 238 235 266 244 233 230 253 259 246 192 232 257 244 247 208 218 185 207 210 269 136 196 210 125 238 236 276 215 258 264 254 260 271 285 294 254 303 305 309
243 194 226 206 194 224 244 235 216 238 223 248 242 247 259 268 271 265 242 272 293 89 199 241 266 241 254 228 216 215 242 236 249 257 242 257 254 259 287 296 305 312 323 324 348
213 235 222 191 232 230 251 273 271 251 238 234 242 242 249 244 262 227 249 2 24 41 309 18 227 270 295 300 57 199 278 267 289 275 259 263 266 269 294 317 339 20 11 3 1
172 249 221 212 228 250 248 253 253 254 254 246 256 267 272 269 260 272 282 335 356 52 287 240 220 248 263 270 334 278 321 306 290 279 300 286 306 316 310 304 320 345 9 14 16
177 219 209 217 238 259 252 270 273 280 230 311 265 251 263 267 274 267 308 351 348 26 78 50 284 331 308 297 303 294 286 280 273 278 269 281 280 302 12 18 348 326 357 15 12
171 225 288 297 298 303 218 250 265 273 278 268 263 292 35 258 296 359 61 131 283 341 32 352 270 326 287 283 276 278 281 274 274 271 268 274 276 11 2 353 348 344 1 9 2
210 238 300 268 254 12 239 278 55 40 44 69 51 348 305 157 182 253 258 241 249 260 255 232 212 75 276 288 314 292 260 261 267 327 302 280 29 352 344 337 339 326 359 350 345